Location: Aranbee
(34.0885°N, 118.2342°W)
Time: 14:01:18
(UTC+00:00)

Tiros 1 - Pass Details

Date: 01 December 2020
Orbit: 630 x 663 km, 48.4° (Epoch: 21 January)

Event Time Altitude Azimuth Distance (km) Brightness Sun altitude
Rises 04:52:07 0° 307° (NW) 2,974 - -50.9°
Reaches altitude 10° 04:54:29 10° 306° (NW) 2,056 - -51.3°
Maximum altitude 04:59:13 79° 220° (SW) 661 - -52.3°
Drops below altitude 10° 05:03:53 10° 134° (SE) 2,025 - -53.3°
Sets 05:06:12 0° 133° (SE) 2,926 - -53.7°
